User: anonymous   Login
Location: Gollag?dem
(16.8053°N, 80.8024°E)
Time: 18:10:10
(UTC+00:00)
Language:

Delta 142 - Orbit

View from above orbital plane
View from above orbital plane
View from above satellite
View from above satellite

Ground track
Ground track

The orbit data is extracted from the following two-line orbital elements,

1 10954U 78062B   20298.16395734  .00000313  00000-0  67479-4 0  9995
2 10954  28.4271 227.1110 0698138  20.9699 341.8075 13.50969695 82437
Epoch (UTC): 24 October 2020 03:56:05
Eccentricity: 0.0698138
inclination: 28.4271°
perigee height: 549 km
apogee height: 1588 km
right ascension of ascending node: 227.1110°
argument of perigee: 20.9699°
revolutions per day: 13.50969695
mean anomaly at epoch: 341.8075°
orbit number at epoch: 8243

The dashed part of the orbit path shows where the satellite is in the earth's shadow,  

DLR